{"data":{"norad_id":64339,"epoch":"2026-05-25T01:56:54.866976Z","epoch_age_seconds":71104,"freshness":"FRESH","line1":"1 64339U 25124Y   26145.08119059  .00009172  00000+0  34231-3 0  9994","line2":"2 64339  42.9991  50.2692 0001334 259.3282 100.7419 15.27590494 53463","mean_motion":15.27590494,"eccentricity":0.0001334,"inclination_deg":42.9991,"raan_deg":50.2692,"arg_perigee_deg":259.3282,"mean_anomaly_deg":100.7419,"bstar":0.00034231,"rev_number":5346,"period_min":94.266101134824,"perigee_km":482.10239537491,"apogee_km":483.93295144178,"semimajor_km":6861.1546734083,"source":"CELESTRAK","updated_at":"2026-05-25T13:38:20.399466Z"}}